| time (UTC) | temp C | wind direction | speed KPH | gust KPH | rain 1hr cm | rain 24hr cm | rain mn cm | humidity % | barometer mb |
| 20260505121825 | 12 | 0 | 0.0 | 0.0 | 0.00 | 0.00 | 0.00 | 83 | 1022.8 |
| 20260505120904 | 12 | 0 | 0.0 | 0.0 | 0.00 | 0.00 | 0.00 | 82 | 1022.7 |
| 20260505120005 | 12 | 0 | 0.0 | 0.0 | 0.00 | 0.00 | 0.00 | 82 | 1023.0 |
| 20260505115404 | 12 | 0 | 0.0 | 0.0 | 0.00 | 0.00 | 0.00 | 81 | 1022.8 |
| 20260505114525 | 12 | 0 | 0.0 | 0.0 | 0.00 | 0.00 | 0.00 | 81 | 1023.0 |
| 20260505113604 | 12 | 0 | 0.0 | 0.0 | 0.00 | 0.00 | 0.00 | 82 | 1023.2 |
| 20260505112704 | 12 | 0 | 0.0 | 0.0 | 0.00 | 0.00 | 0.00 | 82 | 1023.0 |
| 20260505111825 | 12 | 18 | 0.0 | 1.6 | 0.00 | 0.00 | 0.00 | 81 | 1023.0 |
| 20260505110925 | 12 | 18 | 0.0 | 1.6 | 0.00 | 0.00 | 0.00 | 81 | 1023.0 |
| 20260505101804 | 12 | 23 | 0.0 | 1.6 | 0.00 | 0.00 | 0.00 | 80 | 1023.0 |
| 20260505100904 | 12 | 0 | 0.0 | 0.0 | 0.00 | 0.00 | 0.00 | 80 | 1023.0 |
| 20260505100004 | 12 | 24 | 0.0 | 3.2 | 0.00 | 0.00 | 0.00 | 80 | 1023.0 |
| 20260505095404 | 12 | 24 | 0.0 | 3.2 | 0.00 | 0.00 | 0.00 | 80 | 1022.9 |
| 20260505094504 | 12 | 2 | 0.0 | 1.6 | 0.00 | 0.00 | 0.00 | 80 | 1023.1 |
| 20260505093604 | 12 | 26 | 0.0 | 1.6 | 0.00 | 0.00 | 0.00 | 79 | 1022.9 |
| 20260505092704 | 12 | 36 | 0.0 | 3.2 | 0.00 | 0.00 | 0.00 | 79 | 1023.1 |
| 20260505091825 | 12 | 35 | 0.0 | 1.6 | 0.00 | 0.00 | 0.00 | 80 | 1022.9 |
| 20260505090904 | 12 | 0 | 0.0 | 0.0 | 0.00 | 0.00 | 0.00 | 82 | 1022.9 |
| 20260505090004 | 12 | 34 | 0.0 | 3.2 | 0.00 | 0.00 | 0.00 | 81 | 1022.6 |
| 20260505085404 | 12 | 35 | 0.0 | 3.2 | 0.00 | 0.00 | 0.00 | 82 | 1022.6 |
| 20260505084504 | 12 | 0 | 0.0 | 0.0 | 0.00 | 0.00 | 0.00 | 83 | 1022.6 |
| 20260505083604 | 12 | 0 | 0.0 | 0.0 | 0.00 | 0.00 | 0.00 | 84 | 1022.7 |
| 20260505082704 | 12 | 0 | 0.0 | 0.0 | 0.00 | 0.00 | 0.00 | 84 | 1022.3 |
| 20260505081804 | 12 | 0 | 0.0 | 0.0 | 0.00 | 0.00 | 0.00 | 84 | 1022.3 |
| 20260505080904 | 12 | 0 | 0.0 | 0.0 | 0.00 | 0.00 | 0.00 | 84 | 1022.5 |
| 20260505080004 | 12 | 0 | 0.0 | 0.0 | 0.00 | 0.03 | 0.00 | 84 | 1022.2 |
| 20260505075425 | 12 | 0 | 0.0 | 0.0 | 0.00 | 0.08 | 0.00 | 84 | 1022.2 |
| 20260505074504 | 12 | 224 | 0.0 | 1.6 | 0.00 | 0.10 | 0.00 | 83 | 1022.3 |
| 20260505073604 | 12 | 224 | 0.0 | 1.6 | 0.00 | 0.10 | 0.00 | 82 | 1022.2 |
| 20260505072704 | 12 | 0 | 0.0 | 0.0 | 0.00 | 0.10 | 0.00 | 82 | 1022.0 |
| 20260505071804 | 12 | 0 | 0.0 | 0.0 | 0.00 | 0.10 | 0.00 | 82 | 1022.0 |
| 20260505070904 | 13 | 0 | 0.0 | 0.0 | 0.00 | 0.10 | 0.00 | 81 | 1021.8 |
| 20260505070004 | 13 | 0 | 0.0 | 0.0 | 0.00 | 0.10 | 0.00 | 79 | 1021.8 |
| 20260505065404 | 13 | 0 | 0.0 | 0.0 | 0.00 | 0.10 | 0.00 | 78 | 1021.7 |
| 20260505064504 | 13 | 0 | 0.0 | 0.0 | 0.00 | 0.10 | 0.00 | 78 | 1021.5 |
| 20260505063604 | 13 | 0 | 0.0 | 0.0 | 0.00 | 0.10 | 0.00 | 78 | 1021.5 |
| 20260505062704 | 13 | 0 | 0.0 | 0.0 | 0.00 | 0.10 | 0.00 | 78 | 1021.4 |
| 20260505061804 | 13 | 206 | 0.0 | 4.8 | 0.00 | 0.10 | 0.00 | 77 | 1021.3 |
| 20260505060925 | 13 | 211 | 0.0 | 4.8 | 0.00 | 0.10 | 0.00 | 78 | 1021.4 |
| 20260505060004 | 13 | 211 | 0.0 | 4.8 | 0.00 | 0.10 | 0.00 | 77 | 1021.4 |
| 20260505055425 | 13 | 204 | 0.0 | 4.8 | 0.00 | 0.10 | 0.00 | 76 | 1021.4 |
| 20260505054504 | 13 | 0 | 0.0 | 0.0 | 0.00 | 0.10 | 0.00 | 76 | 1021.2 |
| 20260505053604 | 13 | 321 | 0.0 | 1.6 | 0.00 | 0.10 | 0.00 | 75 | 1021.1 |
| 20260505052704 | 13 | 203 | 0.0 | 3.2 | 0.00 | 0.10 | 0.00 | 74 | 1021.1 |
| 20260505051803 | 13 | 222 | 0.0 | 1.6 | 0.00 | 0.10 | 0.00 | 75 | 1021.0 |
| 20260505050903 | 13 | 248 | 0.0 | 1.6 | 0.00 | 0.10 | 0.00 | 75 | 1020.9 |
| 20260505040924 | 13 | 220 | 0.0 | 4.8 | 0.00 | 0.10 | 0.00 | 75 | 1020.7 |
| 20260505040005 | 13 | 196 | 1.6 | 6.4 | 0.00 | 0.10 | 0.00 | 74 | 1020.5 |
| 20260505035403 | 13 | 240 | 0.0 | 4.8 | 0.00 | 0.10 | 0.00 | 73 | 1020.4 |
| 20260505034504 | 13 | 262 | 1.6 | 6.4 | 0.00 | 0.10 | 0.00 | 72 | 1020.5 |
| 20260505033603 | 13 | 239 | 0.0 | 4.8 | 0.00 | 0.10 | 0.00 | 71 | 1020.5 |
| 20260505032703 | 14 | 218 | 0.0 | 4.8 | 0.00 | 0.10 | 0.00 | 72 | 1020.4 |
| 20260505031825 | 14 | 235 | 1.6 | 4.8 | 0.00 | 0.10 | 0.00 | 71 | 1020.5 |
| 20260505030924 | 14 | 292 | 1.6 | 6.4 | 0.00 | 0.10 | 0.00 | 70 | 1020.2 |
| 20260505030004 | 14 | 249 | 1.6 | 9.7 | 0.00 | 0.10 | 0.00 | 71 | 1020.4 |
| 20260505025403 | 14 | 214 | 1.6 | 9.7 | 0.00 | 0.10 | 0.00 | 72 | 1020.5 |
| 20260505024504 | 13 | 220 | 1.6 | 9.7 | 0.00 | 0.10 | 0.00 | 73 | 1020.5 |
| 20260505023604 | 14 | 242 | 1.6 | 6.4 | 0.00 | 0.10 | 0.00 | 74 | 1020.1 |
| 20260505022703 | 14 | 241 | 1.6 | 6.4 | 0.00 | 0.10 | 0.00 | 74 | 1020.4 |
| 20260505021803 | 13 | 313 | 1.6 | 6.4 | 0.00 | 0.10 | 0.00 | 76 | 1020.6 |
| 20260505020903 | 13 | 291 | 0.0 | 4.8 | 0.00 | 0.10 | 0.00 | 77 | 1020.5 |
| 20260505020004 | 13 | 223 | 1.6 | 11.3 | 0.00 | 0.10 | 0.00 | 78 | 1020.5 |
| 20260505015424 | 13 | 211 | 1.6 | 11.3 | 0.00 | 0.10 | 0.00 | 77 | 1020.8 |
| 20260505014503 | 13 | 198 | 1.6 | 9.7 | 0.00 | 0.10 | 0.00 | 79 | 1020.9 |
| 20260505013603 | 13 | 246 | 1.6 | 4.8 | 0.00 | 0.10 | 0.00 | 79 | 1020.7 |
| 20260505012703 | 13 | 245 | 1.6 | 4.8 | 0.00 | 0.10 | 0.00 | 79 | 1020.7 |
| 20260505011803 | 14 | 233 | 1.6 | 9.7 | 0.00 | 0.10 | 0.00 | 77 | 1020.8 |
| 20260505010903 | 13 | 255 | 1.6 | 11.3 | 0.00 | 0.10 | 0.00 | 77 | 1020.9 |
| 20260505010004 | 13 | 248 | 1.6 | 9.7 | 0.00 | 0.10 | 0.00 | 79 | 1020.8 |
| 20260505005403 | 13 | 221 | 1.6 | 6.4 | 0.00 | 0.10 | 0.00 | 78 | 1020.7 |
| 20260505004503 | 13 | 213 | 1.6 | 6.4 | 0.00 | 0.10 | 0.00 | 80 | 1020.7 |
| 20260505003604 | 13 | 262 | 1.6 | 9.7 | 0.00 | 0.10 | 0.00 | 79 | 1020.6 |
| 20260505002704 | 13 | 278 | 1.6 | 9.7 | 0.00 | 0.10 | 0.00 | 80 | 1020.6 |
| 20260505001804 | 13 | 235 | 1.6 | 11.3 | 0.00 | 0.10 | 0.00 | 80 | 1020.1 |
| 20260505000925 | 13 | 243 | 1.6 | 9.7 | 0.00 | 0.10 | 0.00 | 80 | 1020.2 |
| 20260505000004 | 13 | 244 | 1.6 | 9.7 | 0.00 | 0.10 | 0.00 | 80 | 1020.1 |
| 20260504235425 | 13 | 258 | 1.6 | 4.8 | 0.00 | 0.10 | 0.00 | 79 | 1020.1 |
| 20260504234504 | 13 | 227 | 1.6 | 11.3 | 0.00 | 0.10 | 0.00 | 80 | 1020.2 |
| 20260504233625 | 13 | 241 | 1.6 | 14.5 | 0.00 | 0.10 | 0.00 | 83 | 1020.2 |
| 20260504232704 | 12 | 214 | 3.2 | 11.3 | 0.00 | 0.10 | 0.00 | 82 | 1020.0 |
| 20260504231804 | 12 | 265 | 1.6 | 11.3 | 0.00 | 0.10 | 0.00 | 84 | 1020.2 |
| 20260504230904 | 12 | 224 | 1.6 | 6.4 | 0.00 | 0.10 | 0.00 | 87 | 1019.9 |
| 20260504230005 | 12 | 253 | 0.0 | 3.2 | 0.00 | 0.10 | 0.00 | 90 | 1019.8 |
| 20260504225425 | 12 | 290 | 0.0 | 3.2 | 0.00 | 0.10 | 0.00 | 91 | 1019.6 |
| 20260504224525 | 12 | 339 | 0.0 | 3.2 | 0.00 | 0.10 | 0.00 | 93 | 1019.7 |
| 20260504223604 | 11 | 270 | 0.0 | 4.8 | 0.00 | 0.10 | 0.00 | 95 | 1019.4 |
| 20260504222704 | 11 | 278 | 0.0 | 4.8 | 0.00 | 0.10 | 0.00 | 95 | 1019.4 |
| 20260504221804 | 11 | 253 | 0.0 | 6.4 | 0.00 | 0.10 | 0.00 | 96 | 1019.3 |
| 20260504220904 | 11 | 237 | 0.0 | 6.4 | 0.00 | 0.10 | 0.00 | 96 | 1019.3 |
| 20260504220004 | 11 | 236 | 0.0 | 4.8 | 0.00 | 0.10 | 0.00 | 97 | 1019.0 |
| 20260504215404 | 11 | 227 | 0.0 | 4.8 | 0.00 | 0.10 | 0.00 | 97 | 1018.9 |
| 20260504214504 | 11 | 257 | 0.0 | 1.6 | 0.00 | 0.10 | 0.00 | 97 | 1018.6 |
| 20260504213604 | 11 | 0 | 0.0 | 0.0 | 0.00 | 0.10 | 0.00 | 97 | 1018.4 |
| 20260504212704 | 11 | 232 | 0.0 | 1.6 | 0.00 | 0.10 | 0.00 | 97 | 1018.3 |
| 20260504211825 | 11 | 231 | 0.0 | 3.2 | 0.00 | 0.10 | 0.00 | 97 | 1018.1 |
| 20260504210925 | 11 | 244 | 0.0 | 6.4 | 0.00 | 0.10 | 0.00 | 97 | 1018.0 |
| 20260504210004 | 11 | 251 | 0.0 | 3.2 | 0.00 | 0.10 | 0.00 | 97 | 1018.1 |
| 20260504205404 | 11 | 212 | 1.6 | 4.8 | 0.00 | 0.10 | 0.00 | 97 | 1017.8 |
| 20260504204504 | 11 | 188 | 1.6 | 6.4 | 0.00 | 0.10 | 0.00 | 96 | 1017.9 |
| 20260504203604 | 11 | 191 | 1.6 | 11.3 | 0.00 | 0.10 | 0.00 | 96 | 1017.5 |
| 20260504202704 | 11 | 205 | 1.6 | 11.3 | 0.00 | 0.10 | 0.00 | 95 | 1017.5 |
| 20260504201804 | 11 | 236 | 1.6 | 6.4 | 0.00 | 0.10 | 0.00 | 93 | 1017.2 |
| 20260504200925 | 11 | 284 | 1.6 | 9.7 | 0.00 | 0.10 | 0.00 | 92 | 1017.1 |
| 20260504200004 | 11 | 236 | 1.6 | 9.7 | 0.00 | 0.10 | 0.00 | 91 | 1017.1 |
| 20260504195404 | 11 | 191 | 1.6 | 6.4 | 0.00 | 0.10 | 0.00 | 91 | 1017.0 |
| 20260504194504 | 11 | 199 | 1.6 | 4.8 | 0.00 | 0.10 | 0.00 | 91 | 1016.7 |
| 20260504193604 | 11 | 187 | 1.6 | 14.5 | 0.00 | 0.10 | 0.00 | 90 | 1016.7 |
| 20260504192725 | 11 | 210 | 1.6 | 14.5 | 0.00 | 0.10 | 0.00 | 90 | 1016.8 |
| 20260504191804 | 11 | 211 | 1.6 | 11.3 | 0.00 | 0.10 | 0.00 | 90 | 1016.9 |
| 20260504190904 | 11 | 204 | 1.6 | 11.3 | 0.00 | 0.10 | 0.00 | 89 | 1016.5 |
| 20260504190004 | 11 | 220 | 1.6 | 11.3 | 0.00 | 0.10 | 0.00 | 89 | 1016.6 |
| 20260504185404 | 11 | 213 | 1.6 | 6.4 | 0.00 | 0.10 | 0.00 | 89 | 1016.6 |
| 20260504184504 | 11 | 224 | 1.6 | 11.3 | 0.00 | 0.10 | 0.00 | 89 | 1016.3 |
| 20260504183603 | 11 | 245 | 0.0 | 6.4 | 0.00 | 0.10 | 0.00 | 89 | 1016.2 |
| 20260504182704 | 12 | 232 | 0.0 | 4.8 | 0.00 | 0.10 | 0.00 | 89 | 1016.1 |
| 20260504181804 | 12 | 198 | 1.6 | 6.4 | 0.00 | 0.10 | 0.00 | 88 | 1016.1 |
| 20260504180904 | 12 | 206 | 1.6 | 6.4 | 0.00 | 0.10 | 0.00 | 88 | 1015.8 |
| 20260504180004 | 12 | 247 | 1.6 | 4.8 | 0.00 | 0.10 | 0.00 | 88 | 1015.8 |
| 20260504175404 | 12 | 232 | 1.6 | 11.3 | 0.00 | 0.10 | 0.00 | 88 | 1015.8 |
| 20260504174504 | 12 | 229 | 1.6 | 11.3 | 0.00 | 0.10 | 0.00 | 87 | 1015.6 |
| 20260504173604 | 12 | 232 | 1.6 | 9.7 | 0.00 | 0.10 | 0.00 | 88 | 1015.6 |
| 20260504172704 | 12 | 207 | 1.6 | 11.3 | 0.00 | 0.10 | 0.00 | 88 | 1015.5 |
| 20260504171803 | 12 | 201 | 1.6 | 9.7 | 0.00 | 0.10 | 0.00 | 88 | 1015.6 |
| 20260504170904 | 12 | 201 | 1.6 | 9.7 | 0.00 | 0.10 | 0.00 | 88 | 1015.5 |
| 20260504150903 | 12 | 210 | 1.6 | 4.8 | 0.00 | 0.10 | 0.00 | 87 | 1015.0 |
| 20260504140903 | 12 | 242 | 1.6 | 6.4 | 0.00 | 0.10 | 0.00 | 88 | 1014.6 |